Time,TemperatureF,DewpointF,PressureIn,WindDirection,WindDirectionDegrees,WindSpeedMPH,WindSpeedGustMPH,Humidity,HourlyPrecipIn,Conditions,Clouds,dailyrainin,SoftwareType,DateUTC
2013-04-19 00:00:00,43.1,34.3,31.23,SSW,213,0.0,0.0,71,0.00,,---,0.00,VWS V14.01,2013-04-19 07:00:00,
2013-04-19 00:05:00,42.9,34.2,31.24,SW,221,0.0,0.0,71,0.00,,---,0.00,VWS V14.01,2013-04-19 07:05:00,
2013-04-19 00:10:00,42.8,34.1,31.24,SSW,206,0.0,0.0,71,0.00,,---,0.00,VWS V14.01,2013-04-19 07:10:00,
2013-04-19 00:15:00,42.6,33.9,31.24,SSW,206,0.0,0.0,71,0.00,,---,0.00,VWS V14.01,2013-04-19 07:15:00,
2013-04-19 00:20:00,42.5,34.1,31.24,SSW,213,0.0,0.0,72,0.00,,---,0.00,VWS V14.01,2013-04-19 07:20:00,
2013-04-19 00:25:00,42.3,34.3,31.24,SSW,212,0.0,0.0,73,0.00,,---,0.00,VWS V14.01,2013-04-19 07:25:00,
2013-04-19 00:30:00,42.2,34.2,31.24,SSW,212,0.0,0.0,73,0.00,,---,0.00,VWS V14.01,2013-04-19 07:30:00,
2013-04-19 00:35:00,42.2,34.5,31.24,SSW,207,0.0,0.0,74,0.00,,---,0.00,VWS V14.01,2013-04-19 07:35:00,
2013-04-19 00:40:00,42.2,34.5,31.24,SSW,213,0.0,0.0,74,0.00,,---,0.00,VWS V14.01,2013-04-19 07:40:00,
2013-04-19 00:45:00,42.2,34.5,31.24,SW,222,0.0,0.0,74,0.00,,---,0.00,VWS V14.01,2013-04-19 07:45:00,
2013-04-19 00:51:00,42.3,34.6,31.24,SW,221,0.0,0.0,74,0.00,,---,0.00,VWS V14.01,2013-04-19 07:51:00,
2013-04-19 00:56:00,42.3,34.6,31.24,SSW,209,0.0,0.0,74,0.00,,---,0.00,VWS V14.01,2013-04-19 07:56:00,
2013-04-19 01:01:00,42.5,34.5,31.24,SW,217,0.0,0.0,73,0.00,,---,0.00,VWS V14.01,2013-04-19 08:01:00,
2013-04-19 01:06:00,42.8,34.4,31.25,SSW,211,0.0,0.0,72,0.00,,---,0.00,VWS V14.01,2013-04-19 08:06:00,
2013-04-19 01:11:00,43.1,34.3,31.25,SW,221,0.0,0.0,71,0.00,,---,0.00,VWS V14.01,2013-04-19 08:11:00,
2013-04-19 01:16:00,43.2,34.1,31.25,SSW,207,0.0,0.0,70,0.00,,---,0.00,VWS V14.01,2013-04-19 08:16:00,
2013-04-19 01:21:00,43.2,33.7,31.25,SW,218,0.0,0.0,69,0.00,,---,0.00,VWS V14.01,2013-04-19 08:21:00,
2013-04-19 01:26:00,43.3,33.8,31.25,SSW,202,0.0,0.0,69,0.00,,---,0.00,VWS V14.01,2013-04-19 08:26:00,
2013-04-19 01:31:00,43.5,34.4,31.25,SW,225,0.0,0.0,70,0.00,,---,0.00,VWS V14.01,2013-04-19 08:31:00,
2013-04-19 01:36:00,43.5,34.4,31.25,SSW,200,0.0,0.0,70,0.00,,---,0.00,VWS V14.01,2013-04-19 08:36:00,
2013-04-19 01:41:00,43.6,34.5,31.25,SSW,205,0.0,0.0,70,0.00,,---,0.00,VWS V14.01,2013-04-19 08:41:00,
2013-04-19 01:46:00,43.8,34.7,31.25,SSW,197,0.0,0.0,70,0.00,,---,0.00,VWS V14.01,2013-04-19 08:46:00,
2013-04-19 01:51:00,43.8,34.7,31.25,SSW,202,0.0,0.0,70,0.00,,---,0.00,VWS V14.01,2013-04-19 08:51:00,
2013-04-19 01:56:00,43.9,34.8,31.25,SW,231,0.0,0.0,70,0.00,,---,0.00,VWS V14.01,2013-04-19 08:56:00,
2013-04-19 02:01:00,44.1,34.6,31.25,SSW,213,0.0,0.0,69,0.00,,---,0.00,VWS V14.01,2013-04-19 09:01:00,
2013-04-19 02:07:00,44.1,34.6,31.26,SW,221,0.0,0.0,69,0.00,,---,0.00,VWS V14.01,2013-04-19 09:07:00,
2013-04-19 02:12:00,44.1,34.2,31.26,SW,229,0.0,0.0,68,0.00,,---,0.00,VWS V14.01,2013-04-19 09:12:00,
2013-04-19 02:17:00,44.2,34.3,31.26,SW,217,0.0,0.0,68,0.00,,---,0.00,VWS V14.01,2013-04-19 09:17:00,
2013-04-19 02:22:00,44.2,34.0,31.26,SW,232,0.0,0.0,67,0.00,,---,0.00,VWS V14.01,2013-04-19 09:22:00,
2013-04-19 02:27:00,44.2,34.0,31.26,SW,216,0.0,0.0,67,0.00,,---,0.00,VWS V14.01,2013-04-19 09:27:00,
2013-04-19 02:32:00,44.2,34.0,31.26,SW,221,0.0,0.0,67,0.00,,---,0.00,VWS V14.01,2013-04-19 09:32:00,
2013-04-19 02:37:00,44.2,34.0,31.26,SW,230,0.0,0.0,67,0.00,,---,0.00,VWS V14.01,2013-04-19 09:37:00,
2013-04-19 02:42:00,44.2,34.0,31.26,SW,219,0.0,0.0,67,0.00,,---,0.00,VWS V14.01,2013-04-19 09:42:00,
2013-04-19 02:47:00,44.2,34.3,31.26,South,186,0.0,0.0,68,0.00,,---,0.00,VWS V14.01,2013-04-19 09:47:00,
2013-04-19 02:52:00,44.2,34.0,31.26,SSW,207,0.0,0.0,67,0.00,,---,0.00,VWS V14.01,2013-04-19 09:52:00,
2013-04-19 02:57:00,44.2,34.3,31.26,SSW,209,0.0,0.0,68,0.00,,---,0.00,VWS V14.01,2013-04-19 09:57:00,
2013-04-19 03:02:00,44.2,34.3,31.26,SSW,210,0.0,0.0,68,0.00,,---,0.00,VWS V14.01,2013-04-19 10:02:00,
2013-04-19 03:07:00,44.3,34.4,31.25,SSW,213,0.0,0.0,68,0.00,,---,0.00,VWS V14.01,2013-04-19 10:07:00,
2013-04-19 03:13:00,44.2,34.3,31.25,SW,233,0.0,0.0,68,0.00,,---,0.00,VWS V14.01,2013-04-19 10:13:00,
2013-04-19 03:18:00,44.2,34.3,31.25,SW,221,0.0,0.0,68,0.00,,---,0.00,VWS V14.01,2013-04-19 10:18:00,
2013-04-19 03:23:00,44.3,34.0,31.25,SW,217,0.0,0.0,67,0.00,,---,0.00,VWS V14.01,2013-04-19 10:23:00,
2013-04-19 03:28:00,44.5,34.2,31.26,SSW,213,0.0,0.0,67,0.00,,---,0.00,VWS V14.01,2013-04-19 10:28:00,
2013-04-19 03:33:00,44.6,34.0,31.26,SW,223,0.0,0.0,66,0.00,,---,0.00,VWS V14.01,2013-04-19 10:33:00,
2013-04-19 03:38:00,44.2,34.7,31.25,SSW,209,0.0,0.0,69,0.00,,---,0.00,VWS V14.01,2013-04-19 10:38:00,
2013-04-19 03:43:00,43.6,34.8,31.25,South,184,0.0,0.0,71,0.00,,---,0.00,VWS V14.01,2013-04-19 10:43:00,
2013-04-19 03:48:00,43.5,35.1,31.25,SSW,204,0.0,0.0,72,0.00,,---,0.00,VWS V14.01,2013-04-19 10:48:00,
2013-04-19 03:53:00,43.2,34.8,31.25,SW,218,0.0,0.0,72,0.00,,---,0.00,VWS V14.01,2013-04-19 10:53:00,
2013-04-19 03:58:00,43.3,34.5,31.25,SSW,198,0.0,0.0,71,0.00,,---,0.00,VWS V14.01,2013-04-19 10:58:00,
2013-04-19 04:03:00,43.5,35.1,31.25,SW,214,0.0,0.0,72,0.00,,---,0.00,VWS V14.01,2013-04-19 11:03:00,
2013-04-19 04:08:00,43.5,34.7,31.25,SW,222,0.0,0.0,71,0.00,,---,0.00,VWS V14.01,2013-04-19 11:08:00,
2013-04-19 04:13:00,43.8,35.0,31.25,SW,227,0.0,0.0,71,0.00,,---,0.00,VWS V14.01,2013-04-19 11:13:00,
2013-04-19 04:18:00,43.8,35.0,31.25,SW,215,0.0,0.0,71,0.00,,---,0.00,VWS V14.01,2013-04-19 11:18:00,
2013-04-19 04:23:00,43.8,35.0,31.25,SW,220,0.0,0.0,71,0.00,,---,0.00,VWS V14.01,2013-04-19 11:23:00,
2013-04-19 04:29:00,43.6,34.8,31.25,SSW,193,0.0,0.0,71,0.00,,---,0.00,VWS V14.01,2013-04-19 11:29:00,
2013-04-19 04:34:00,43.5,35.1,31.25,South,178,0.0,0.0,72,0.00,,---,0.00,VWS V14.01,2013-04-19 11:34:00,
2013-04-19 04:39:00,43.5,35.1,31.25,South,190,0.0,0.0,72,0.00,,---,0.00,VWS V14.01,2013-04-19 11:39:00,
2013-04-19 04:44:00,43.5,35.1,31.25,SSW,200,0.0,0.0,72,0.00,,---,0.00,VWS V14.01,2013-04-19 11:44:00,
2013-04-19 04:49:00,43.3,35.2,31.25,SSW,202,0.0,0.0,73,0.00,,---,0.00,VWS V14.01,2013-04-19 11:49:00,
2013-04-19 04:54:00,43.2,35.1,31.25,SSW,209,0.0,0.0,73,0.00,,---,0.00,VWS V14.01,2013-04-19 11:54:00,
2013-04-19 04:59:00,43.3,35.2,31.25,SW,219,0.0,0.0,73,0.00,,---,0.00,VWS V14.01,2013-04-19 11:59:00,
2013-04-19 05:04:00,43.3,35.2,31.25,SSW,202,0.0,0.0,73,0.00,,---,0.00,VWS V14.01,2013-04-19 12:04:00,
2013-04-19 05:09:00,43.3,35.2,31.23,SSW,213,0.0,0.0,73,0.00,,---,0.00,VWS V14.01,2013-04-19 12:09:00,
2013-04-19 05:14:00,43.2,35.1,31.23,SSW,202,0.0,0.0,73,0.00,,---,0.00,VWS V14.01,2013-04-19 12:14:00,
2013-04-19 05:19:00,43.2,35.1,31.23,SSW,196,0.0,0.0,73,0.00,,---,0.00,VWS V14.01,2013-04-19 12:19:00,
2013-04-19 05:24:00,43.2,35.1,31.23,SW,221,0.0,0.0,73,0.00,,---,0.00,VWS V14.01,2013-04-19 12:24:00,
2013-04-19 05:29:00,43.2,35.5,31.23,SSW,205,0.0,0.0,74,0.00,,---,0.00,VWS V14.01,2013-04-19 12:29:00,
2013-04-19 05:34:00,43.2,35.1,31.23,SSW,196,0.0,0.0,73,0.00,,---,0.00,VWS V14.01,2013-04-19 12:34:00,
2013-04-19 05:39:00,43.2,35.1,31.23,SSW,207,0.0,0.0,73,0.00,,---,0.00,VWS V14.01,2013-04-19 12:39:00,
2013-04-19 05:45:00,43.1,35.4,31.23,SSW,194,0.0,0.0,74,0.00,,---,0.00,VWS V14.01,2013-04-19 12:45:00,
2013-04-19 05:50:00,43.1,35.4,31.23,SSW,213,0.0,0.0,74,0.00,,---,0.00,VWS V14.01,2013-04-19 12:50:00,
2013-04-19 05:55:00,42.8,35.4,31.23,SW,231,0.0,0.0,75,0.00,,---,0.00,VWS V14.01,2013-04-19 12:55:00,
2013-04-19 06:00:00,42.6,35.6,31.24,WSW,248,0.0,0.0,76,0.00,,---,0.00,VWS V14.01,2013-04-19 13:00:00,
2013-04-19 06:05:00,42.6,35.6,31.23,SSW,211,0.0,0.0,76,0.00,,---,0.00,VWS V14.01,2013-04-19 13:05:00,
2013-04-19 06:10:00,42.5,35.5,31.22,SW,233,0.0,0.0,76,0.00,,---,0.00,VWS V14.01,2013-04-19 13:10:00,
2013-04-19 06:15:00,42.5,35.8,31.23,WSW,241,0.0,0.0,77,0.00,,---,0.00,VWS V14.01,2013-04-19 13:15:00,
2013-04-19 06:20:00,42.5,35.5,31.22,SW,214,0.0,0.0,76,0.00,,---,0.00,VWS V14.01,2013-04-19 13:20:00,
2013-04-19 06:25:00,42.5,35.8,31.23,SW,219,0.0,0.0,77,0.00,,---,0.00,VWS V14.01,2013-04-19 13:25:00,
2013-04-19 06:30:00,42.3,35.9,31.23,SW,232,0.0,0.0,78,0.00,,---,0.00,VWS V14.01,2013-04-19 13:30:00,
2013-04-19 06:35:00,42.1,35.8,31.23,SW,221,0.0,0.0,78,0.00,,---,0.00,VWS V14.01,2013-04-19 13:35:00,
2013-04-19 06:40:00,42.1,36.1,31.23,SW,233,0.0,0.0,79,0.00,,---,0.00,VWS V14.01,2013-04-19 13:40:00,
2013-04-19 06:45:00,42.2,36.2,31.23,SW,233,0.0,0.0,79,0.00,,---,0.00,VWS V14.01,2013-04-19 13:45:00,
2013-04-19 06:51:00,42.1,36.1,31.23,SSW,209,0.0,0.0,79,0.00,,---,0.00,VWS V14.01,2013-04-19 13:51:00,
2013-04-19 06:56:00,42.1,36.1,31.23,SSW,205,0.0,0.0,79,0.00,,---,0.00,VWS V14.01,2013-04-19 13:56:00,
2013-04-19 07:01:00,42.1,36.1,31.23,SSW,207,0.0,0.0,79,0.00,,---,0.00,VWS V14.01,2013-04-19 14:01:00,
2013-04-19 07:06:00,42.1,36.1,31.22,SSW,200,0.0,0.0,79,0.00,,---,0.00,VWS V14.01,2013-04-19 14:06:00,
2013-04-19 07:11:00,42.2,36.2,31.22,SSW,192,0.0,0.0,79,0.00,,---,0.00,VWS V14.01,2013-04-19 14:11:00,
2013-04-19 07:16:00,42.3,36.3,31.22,SW,217,0.0,0.0,79,0.00,,---,0.00,VWS V14.01,2013-04-19 14:16:00,
2013-04-19 07:21:00,42.5,36.5,31.22,SW,233,0.0,0.0,79,0.00,,---,0.00,VWS V14.01,2013-04-19 14:21:00,
2013-04-19 07:26:00,42.6,36.5,31.22,SSW,203,0.0,0.0,79,0.00,,---,0.00,VWS V14.01,2013-04-19 14:26:00,
2013-04-19 07:31:00,42.6,36.5,31.22,SW,218,0.0,0.0,79,0.00,,---,0.00,VWS V14.01,2013-04-19 14:31:00,
2013-04-19 07:36:00,42.6,36.5,31.22,South,190,0.0,0.0,79,0.00,,---,0.00,VWS V14.01,2013-04-19 14:36:00,
2013-04-19 07:41:00,42.6,36.5,31.22,SSW,205,0.0,0.0,79,0.00,,---,0.00,VWS V14.01,2013-04-19 14:41:00,
2013-04-19 07:46:00,42.8,36.8,31.22,SW,225,0.0,0.0,79,0.00,,---,0.00,VWS V14.01,2013-04-19 14:46:00,
2013-04-19 07:51:00,42.9,36.5,31.22,SSW,207,0.0,0.0,78,0.00,,---,0.00,VWS V14.01,2013-04-19 14:51:00,
2013-04-19 07:56:00,43.2,36.8,31.22,SSW,195,0.0,0.0,78,0.00,,---,0.00,VWS V14.01,2013-04-19 14:56:00,
2013-04-19 08:01:00,43.3,36.9,31.22,South,177,0.0,0.0,78,0.00,,---,0.00,VWS V14.01,2013-04-19 15:01:00,
2013-04-19 08:07:00,43.6,37.2,31.22,SSW,195,0.0,0.0,78,0.00,,---,0.00,VWS V14.01,2013-04-19 15:07:00,
2013-04-19 08:12:00,43.6,36.9,31.22,SSW,197,0.0,0.0,77,0.00,,---,0.00,VWS V14.01,2013-04-19 15:12:00,
2013-04-19 08:17:00,43.6,36.9,31.22,SSW,207,0.0,0.0,77,0.00,,---,0.00,VWS V14.01,2013-04-19 15:17:00,
2013-04-19 08:22:00,43.8,37.4,31.22,SW,224,0.0,0.0,78,0.00,,---,0.00,VWS V14.01,2013-04-19 15:22:00,
2013-04-19 08:27:00,43.6,36.9,31.22,SSW,202,0.0,0.0,77,0.00,,---,0.00,VWS V14.01,2013-04-19 15:27:00,
2013-04-19 08:32:00,43.6,36.9,31.22,SSW,203,0.0,0.0,77,0.00,,---,0.00,VWS V14.01,2013-04-19 15:32:00,
2013-04-19 08:37:00,43.5,36.8,31.22,SSW,193,0.0,0.0,77,0.00,,---,0.00,VWS V14.01,2013-04-19 15:37:00,
2013-04-19 08:42:00,43.6,36.9,31.22,South,187,0.0,0.0,77,0.00,,---,0.00,VWS V14.01,2013-04-19 15:42:00,
2013-04-19 08:47:00,43.5,37.1,31.22,South,191,0.0,0.0,78,0.00,,---,0.00,VWS V14.01,2013-04-19 15:47:00,
2013-04-19 08:52:00,43.5,37.1,31.22,SW,223,0.0,0.0,78,0.00,,---,0.00,VWS V14.01,2013-04-19 15:52:00,
2013-04-19 08:57:00,43.5,37.1,31.22,SW,232,0.0,0.0,78,0.00,,---,0.00,VWS V14.01,2013-04-19 15:57:00,
2013-04-19 09:02:00,43.6,37.5,31.22,SSW,213,0.0,0.0,79,0.00,,---,0.00,VWS V14.01,2013-04-19 16:02:00,
2013-04-19 09:07:00,43.8,37.4,31.22,WSW,237,0.0,0.0,78,0.00,,---,0.00,VWS V14.01,2013-04-19 16:07:00,
2013-04-19 09:12:00,43.6,36.9,31.22,SW,222,0.0,0.0,77,0.00,,---,0.00,VWS V14.01,2013-04-19 16:12:00,
2013-04-19 09:18:00,43.9,37.2,31.22,South,171,0.0,0.0,77,0.00,,---,0.00,VWS V14.01,2013-04-19 16:18:00,
2013-04-19 09:23:00,44.1,37.4,31.22,SW,218,0.0,0.0,77,0.00,,---,0.00,VWS V14.01,2013-04-19 16:23:00,
2013-04-19 09:28:00,44.2,37.5,31.22,SSW,209,0.0,0.0,77,0.00,,---,0.00,VWS V14.01,2013-04-19 16:28:00,
2013-04-19 09:33:00,44.1,36.7,31.22,South,169,0.0,0.0,75,0.00,,---,0.00,VWS V14.01,2013-04-19 16:33:00,
2013-04-19 09:38:00,44.1,37.0,31.22,SSW,196,0.0,0.0,76,0.00,,---,0.00,VWS V14.01,2013-04-19 16:38:00,
2013-04-19 09:43:00,44.1,36.4,31.22,SSW,210,0.0,0.0,74,0.00,,---,0.00,VWS V14.01,2013-04-19 16:43:00,
2013-04-19 09:48:00,44.2,36.5,31.22,SSW,209,0.0,0.0,74,0.00,,---,0.00,VWS V14.01,2013-04-19 16:48:00,
2013-04-19 09:53:00,44.9,36.8,31.23,SSW,207,0.0,0.0,73,0.00,,---,0.00,VWS V14.01,2013-04-19 16:53:00,
2013-04-19 09:58:00,45.2,37.1,31.23,SSE,163,0.0,0.0,73,0.00,,---,0.00,VWS V14.01,2013-04-19 16:58:00,
2013-04-19 10:03:00,46.0,37.1,31.23,South,174,0.0,0.0,71,0.00,,---,0.00,VWS V14.01,2013-04-19 17:03:00,
2013-04-19 10:08:00,47.7,38.8,31.24,SSW,193,0.0,0.0,71,0.00,,---,0.00,VWS V14.01,2013-04-19 17:08:00,
2013-04-19 10:13:00,47.6,36.8,31.23,South,186,0.0,0.0,66,0.00,,---,0.00,VWS V14.01,2013-04-19 17:13:00,
2013-04-19 10:18:00,48.5,37.3,31.24,SSE,159,0.0,0.0,65,0.00,,---,0.00,VWS V14.01,2013-04-19 17:18:00,
2013-04-19 10:24:00,48.8,38.0,31.24,SW,223,0.0,0.0,66,0.00,,---,0.00,VWS V14.01,2013-04-19 17:24:00,
2013-04-19 10:29:00,48.2,37.4,31.24,South,173,0.0,0.0,66,0.00,,---,0.00,VWS V14.01,2013-04-19 17:29:00,
2013-04-19 10:34:00,48.3,37.1,31.24,SSW,198,0.0,0.0,65,0.00,,---,0.00,VWS V14.01,2013-04-19 17:34:00,
2013-04-19 10:39:00,48.5,37.7,31.24,SSE,157,0.0,0.0,66,0.00,,---,0.00,VWS V14.01,2013-04-19 17:39:00,
2013-04-19 10:44:00,48.6,37.4,31.24,SSW,213,0.0,0.0,65,0.00,,---,0.00,VWS V14.01,2013-04-19 17:44:00,
2013-04-19 10:49:00,49.1,36.7,31.24,SW,229,0.0,0.0,62,0.00,,---,0.00,VWS V14.01,2013-04-19 17:49:00,
2013-04-19 10:54:00,49.5,37.0,31.24,SW,223,0.0,0.0,62,0.00,,---,0.00,VWS V14.01,2013-04-19 17:54:00,
2013-04-19 10:59:00,49.9,36.2,31.25,SSW,211,0.0,0.0,59,0.00,,---,0.00,VWS V14.01,2013-04-19 17:59:00,
2013-04-19 11:04:00,49.9,34.8,31.24,SSW,213,0.0,0.0,56,0.00,,---,0.00,VWS V14.01,2013-04-19 18:04:00,
2013-04-19 11:09:00,49.9,36.2,31.23,SW,234,0.0,0.0,59,0.00,,---,0.00,VWS V14.01,2013-04-19 18:09:00,
2013-04-19 11:14:00,50.5,35.4,31.25,WSW,240,0.0,0.0,56,0.00,,---,0.00,VWS V14.01,2013-04-19 18:14:00,
2013-04-19 11:19:00,50.1,35.5,31.23,SW,231,0.0,0.0,57,0.00,,---,0.00,VWS V14.01,2013-04-19 18:19:00,
2013-04-19 11:24:00,49.2,34.6,31.23,WSW,248,0.0,0.0,57,0.00,,---,0.00,VWS V14.01,2013-04-19 18:24:00,
2013-04-19 11:29:00,48.9,34.8,31.23,SSW,196,0.0,0.0,58,0.00,,---,0.00,VWS V14.01,2013-04-19 18:29:00,
2013-04-19 11:34:00,49.8,36.1,31.24,SSW,211,0.0,0.0,59,0.00,,---,0.00,VWS V14.01,2013-04-19 18:34:00,
2013-04-19 11:40:00,50.7,35.6,31.24,WSW,257,0.0,0.0,56,0.00,,---,0.00,VWS V14.01,2013-04-19 18:40:00,
2013-04-19 11:45:00,51.0,35.4,31.24,SSW,205,0.0,0.0,55,0.00,,---,0.00,VWS V14.01,2013-04-19 18:45:00,
2013-04-19 11:50:00,50.8,36.6,31.24,SW,226,0.0,0.0,58,0.00,,---,0.00,VWS V14.01,2013-04-19 18:50:00,
2013-04-19 11:55:00,50.5,35.0,31.24,WSW,252,0.0,0.0,55,0.00,,---,0.00,VWS V14.01,2013-04-19 18:55:00,
2013-04-19 12:00:00,51.6,35.0,31.24,SW,227,0.0,0.0,53,0.00,,---,0.00,VWS V14.01,2013-04-19 19:00:00,
2013-04-19 12:05:00,51.9,34.8,31.24,WSW,252,0.0,0.0,52,0.00,,---,0.00,VWS V14.01,2013-04-19 19:05:00,
2013-04-19 12:10:00,52.5,34.4,31.24,SW,227,0.0,0.0,50,0.00,,---,0.00,VWS V14.01,2013-04-19 19:10:00,
2013-04-19 12:15:00,53.3,35.7,31.25,SW,225,0.0,0.0,51,0.00,,---,0.00,VWS V14.01,2013-04-19 19:15:00,
2013-04-19 12:20:00,54.2,35.0,31.25,SW,225,0.0,0.0,48,0.00,,---,0.00,VWS V14.01,2013-04-19 19:20:00,
2013-04-19 12:25:00,55.6,35.7,31.26,WSW,249,0.0,0.0,47,0.00,,---,0.00,VWS V14.01,2013-04-19 19:25:00,
2013-04-19 12:30:00,55.9,35.4,31.27,WSW,252,0.0,0.0,46,0.00,,---,0.00,VWS V14.01,2013-04-19 19:30:00,
2013-04-19 12:35:00,55.0,36.2,31.27,WSW,250,0.0,0.0,49,0.00,,---,0.00,VWS V14.01,2013-04-19 19:35:00,
2013-04-19 12:40:00,55.0,35.7,31.26,SSW,210,0.0,0.0,48,0.00,,---,0.00,VWS V14.01,2013-04-19 19:40:00,
2013-04-19 12:45:00,54.8,35.5,31.26,West,273,0.0,0.0,48,0.00,,---,0.00,VWS V14.01,2013-04-19 19:45:00,
2013-04-19 12:51:00,54.4,35.1,31.25,WSW,243,0.0,0.0,48,0.00,,---,0.00,VWS V14.01,2013-04-19 19:51:00,
2013-04-19 12:56:00,55.0,35.2,31.26,NW,315,0.0,0.0,47,0.00,,---,0.00,VWS V14.01,2013-04-19 19:56:00,
2013-04-19 13:01:00,55.7,36.8,31.27,WSW,238,0.0,0.0,49,0.00,,---,0.00,VWS V14.01,2013-04-19 20:01:00,
2013-04-19 13:06:00,54.7,36.4,31.26,WSW,242,0.0,0.0,50,0.00,,---,0.00,VWS V14.01,2013-04-19 20:06:00,
2013-04-19 13:11:00,54.8,37.0,31.27,SW,221,0.0,0.0,51,0.00,,---,0.00,VWS V14.01,2013-04-19 20:11:00,
2013-04-19 13:16:00,54.7,34.9,31.26,SW,229,0.0,0.0,47,0.00,,---,0.00,VWS V14.01,2013-04-19 20:16:00,
2013-04-19 13:21:00,55.3,36.5,31.26,WSW,251,0.0,0.0,49,0.00,,---,0.00,VWS V14.01,2013-04-19 20:21:00,
2013-04-19 13:26:00,55.7,35.8,31.27,West,263,0.0,0.0,47,0.00,,---,0.00,VWS V14.01,2013-04-19 20:26:00,
2013-04-19 13:31:00,55.9,34.3,31.27,NW,319,0.0,0.0,44,0.00,,---,0.00,VWS V14.01,2013-04-19 20:31:00,
2013-04-19 13:36:00,54.8,31.6,31.26,West,277,0.0,0.0,41,0.00,,---,0.00,VWS V14.01,2013-04-19 20:36:00,
2013-04-19 13:41:00,53.3,30.8,31.26,WNW,302,0.0,0.0,42,0.00,,---,0.00,VWS V14.01,2013-04-19 20:41:00,
2013-04-19 13:46:00,52.9,32.2,31.25,NW,313,0.0,0.0,45,0.00,,---,0.00,VWS V14.01,2013-04-19 20:46:00,
2013-04-19 13:51:00,53.3,33.1,31.25,WNW,283,0.0,0.0,46,0.00,,---,0.00,VWS V14.01,2013-04-19 20:51:00,
2013-04-19 13:56:00,54.1,32.7,31.26,WNW,302,0.0,0.0,44,0.00,,---,0.00,VWS V14.01,2013-04-19 20:56:00,
2013-04-19 14:01:00,53.2,32.4,31.25,WNW,300,0.0,0.0,45,0.00,,---,0.00,VWS V14.01,2013-04-19 21:01:00,
2013-04-19 14:07:00,53.2,32.4,31.25,West,260,0.0,0.0,45,0.00,,---,0.00,VWS V14.01,2013-04-19 21:07:00,
2013-04-19 14:12:00,53.5,31.6,31.26,WNW,284,0.0,0.0,43,0.00,,---,0.00,VWS V14.01,2013-04-19 21:12:00,
2013-04-19 14:17:00,53.9,33.6,31.26,WSW,245,0.0,0.0,46,0.00,,---,0.00,VWS V14.01,2013-04-19 21:17:00,
2013-04-19 14:22:00,53.9,36.2,31.26,WNW,298,0.0,0.0,51,0.00,,---,0.00,VWS V14.01,2013-04-19 21:22:00,
2013-04-19 14:27:00,53.2,32.4,31.25,WNW,302,0.0,0.0,45,0.00,,---,0.00,VWS V14.01,2013-04-19 21:27:00,
2013-04-19 14:32:00,52.2,32.6,31.25,West,273,0.0,0.0,47,0.00,,---,0.00,VWS V14.01,2013-04-19 21:32:00,
2013-04-19 14:37:00,52.6,32.4,31.25,West,276,0.0,0.0,46,0.00,,---,0.00,VWS V14.01,2013-04-19 21:37:00,
2013-04-19 14:42:00,53.5,33.8,31.26,WNW,282,0.0,0.0,47,0.00,,---,0.00,VWS V14.01,2013-04-19 21:42:00,
2013-04-19 14:47:00,52.6,33.5,31.25,West,280,0.0,0.0,48,0.00,,---,0.00,VWS V14.01,2013-04-19 21:47:00,
2013-04-19 14:52:00,52.5,32.9,31.25,West,272,0.0,0.0,47,0.00,,---,0.00,VWS V14.01,2013-04-19 21:52:00,
2013-04-19 14:57:00,52.5,33.4,31.25,NW,313,0.0,0.0,48,0.00,,---,0.00,VWS V14.01,2013-04-19 21:57:00,
2013-04-19 15:02:00,51.6,31.0,31.25,West,278,0.0,0.0,45,0.00,,---,0.00,VWS V14.01,2013-04-19 22:02:00,
2013-04-19 15:07:00,52.6,32.4,31.25,West,275,0.0,0.0,46,0.00,,---,0.00,VWS V14.01,2013-04-19 22:07:00,
2013-04-19 15:13:00,52.9,31.6,31.25,West,273,0.0,0.0,44,0.00,,---,0.00,VWS V14.01,2013-04-19 22:13:00,
2013-04-19 15:18:00,51.4,30.8,31.25,WNW,292,0.0,0.0,45,0.00,,---,0.00,VWS V14.01,2013-04-19 22:18:00,
2013-04-19 15:23:00,51.4,31.3,31.24,NW,311,0.0,0.0,46,0.00,,---,0.00,VWS V14.01,2013-04-19 22:23:00,
2013-04-19 15:28:00,51.0,31.5,31.24,West,266,0.0,0.0,47,0.00,,---,0.00,VWS V14.01,2013-04-19 22:28:00,
2013-04-19 15:33:00,51.6,32.6,31.24,WNW,292,0.0,0.0,48,0.00,,---,0.00,VWS V14.01,2013-04-19 22:33:00,
2013-04-19 15:38:00,52.0,30.2,31.25,NNW,338,0.0,0.0,43,0.00,,---,0.00,VWS V14.01,2013-04-19 22:38:00,
2013-04-19 15:43:00,51.7,29.9,31.25,WNW,302,0.0,0.0,43,0.00,,---,0.00,VWS V14.01,2013-04-19 22:43:00,
2013-04-19 15:48:00,51.3,30.7,31.24,NW,323,0.0,0.0,45,0.00,,---,0.00,VWS V14.01,2013-04-19 22:48:00,
2013-04-19 15:53:00,51.4,29.7,31.24,WNW,300,0.0,0.0,43,0.00,,---,0.00,VWS V14.01,2013-04-19 22:53:00,
2013-04-19 15:58:00,51.1,30.5,31.24,WNW,292,0.0,0.0,45,0.00,,---,0.00,VWS V14.01,2013-04-19 22:58:00,
2013-04-19 16:03:00,50.8,29.7,31.24,NW,305,0.0,0.0,44,0.00,,---,0.00,VWS V14.01,2013-04-19 23:03:00,
2013-04-19 16:08:00,51.0,29.9,31.24,WNW,284,0.0,0.0,44,0.00,,---,0.00,VWS V14.01,2013-04-19 23:08:00,
2013-04-19 16:13:00,51.1,29.4,31.24,West,278,0.0,0.0,43,0.00,,---,0.00,VWS V14.01,2013-04-19 23:13:00,
2013-04-19 16:18:00,51.1,30.0,31.24,WNW,282,0.0,0.0,44,0.00,,---,0.00,VWS V14.01,2013-04-19 23:18:00,
2013-04-19 16:23:00,51.0,29.9,31.24,NW,325,0.0,0.0,44,0.00,,---,0.00,VWS V14.01,2013-04-19 23:23:00,
2013-04-19 16:29:00,50.7,29.0,31.24,West,271,0.0,0.0,43,0.00,,---,0.00,VWS V14.01,2013-04-19 23:29:00,
2013-04-19 16:34:00,50.1,29.6,31.23,NW,320,0.0,0.0,45,0.00,,---,0.00,VWS V14.01,2013-04-19 23:34:00,
2013-04-19 16:39:00,50.2,30.2,31.23,WNW,284,0.0,0.0,46,0.00,,---,0.00,VWS V14.01,2013-04-19 23:39:00,
2013-04-19 16:44:00,50.1,30.7,31.23,WNW,284,0.0,0.0,47,0.00,,---,0.00,VWS V14.01,2013-04-19 23:44:00,
2013-04-19 16:49:00,49.9,30.5,31.23,West,277,0.0,0.0,47,0.00,,---,0.00,VWS V14.01,2013-04-19 23:49:00,
2013-04-19 16:54:00,50.2,30.8,31.23,NW,310,0.0,0.0,47,0.00,,---,0.00,VWS V14.01,2013-04-19 23:54:00,
2013-04-19 16:59:00,50.1,30.1,31.23,NNW,330,0.0,0.0,46,0.00,,---,0.00,VWS V14.01,2013-04-19 23:59:00,
2013-04-19 17:04:00,50.1,29.0,31.23,WNW,294,0.0,0.0,44,0.00,,---,0.00,VWS V14.01,2013-04-20 00:04:00,
2013-04-19 17:09:00,50.1,29.6,31.23,WNW,285,0.0,0.0,45,0.00,,---,0.00,VWS V14.01,2013-04-20 00:09:00,
2013-04-19 17:14:00,49.9,29.4,31.23,NNW,336,0.0,0.0,45,0.00,,---,0.00,VWS V14.01,2013-04-20 00:14:00,
2013-04-19 17:19:00,49.8,29.9,31.23,West,265,0.0,0.0,46,0.00,,---,0.00,VWS V14.01,2013-04-20 00:19:00,
2013-04-19 17:24:00,50.2,29.7,31.23,WSW,252,0.0,0.0,45,0.00,,---,0.00,VWS V14.01,2013-04-20 00:24:00,
2013-04-19 17:29:00,50.8,28.5,31.24,West,264,0.0,0.0,42,0.00,,---,0.00,VWS V14.01,2013-04-20 00:29:00,
2013-04-19 17:34:00,51.0,30.4,31.24,West,270,0.0,0.0,45,0.00,,---,0.00,VWS V14.01,2013-04-20 00:34:00,
2013-04-19 17:39:00,51.0,32.0,31.24,NNW,340,0.0,0.0,48,0.00,,---,0.00,VWS V14.01,2013-04-20 00:39:00,
2013-04-19 17:45:00,49.5,32.1,31.23,North,9,0.0,0.0,51,0.00,,---,0.00,VWS V14.01,2013-04-20 00:45:00,
2013-04-19 17:50:00,48.8,32.9,31.24,NNE,21,0.0,0.0,54,0.00,,---,0.00,VWS V14.01,2013-04-20 00:50:00,
2013-04-19 17:55:00,48.3,32.9,31.22,NW,320,0.0,0.0,55,0.00,,---,0.00,VWS V14.01,2013-04-20 00:55:00,
2013-04-19 18:00:00,47.9,33.0,31.22,NNW,336,0.0,0.0,56,0.00,,---,0.00,VWS V14.01,2013-04-20 01:00:00,
2013-04-19 18:05:00,47.6,33.1,31.22,North,355,0.0,0.0,57,0.00,,---,0.00,VWS V14.01,2013-04-20 01:05:00,
2013-04-19 18:10:00,47.4,32.5,31.21,NW,319,0.0,0.0,56,0.00,,---,0.00,VWS V14.01,2013-04-20 01:10:00,
2013-04-19 18:15:00,47.0,31.7,31.21,NW,319,0.0,0.0,55,0.00,,---,0.00,VWS V14.01,2013-04-20 01:15:00,
2013-04-19 18:20:00,46.7,31.9,31.21,NW,316,0.0,0.0,56,0.00,,---,0.00,VWS V14.01,2013-04-20 01:20:00,
2013-04-19 18:25:00,46.8,31.0,31.21,WNW,300,0.0,0.0,54,0.00,,---,0.00,VWS V14.01,2013-04-20 01:25:00,
2013-04-19 18:30:00,46.7,30.5,31.21,NNW,339,0.0,0.0,53,0.00,,---,0.00,VWS V14.01,2013-04-20 01:30:00,
2013-04-19 18:35:00,46.7,29.5,31.21,WNW,290,0.0,0.0,51,0.00,,---,0.00,VWS V14.01,2013-04-20 01:35:00,
2013-04-19 18:40:00,46.5,29.8,31.21,WNW,297,0.0,0.0,52,0.00,,---,0.00,VWS V14.01,2013-04-20 01:40:00,
2013-04-19 18:45:00,46.4,28.8,31.21,NW,320,0.0,0.0,50,0.00,,---,0.00,VWS V14.01,2013-04-20 01:45:00,
2013-04-19 18:50:00,46.2,30.0,31.21,NNW,338,0.0,0.0,53,0.00,,---,0.00,VWS V14.01,2013-04-20 01:50:00,
2013-04-19 18:55:00,46.1,29.9,31.21,NNW,343,0.0,0.0,53,0.00,,---,0.00,VWS V14.01,2013-04-20 01:55:00,
2013-04-19 19:00:00,45.8,30.6,31.21,NW,316,0.0,0.0,55,0.00,,---,0.00,VWS V14.01,2013-04-20 02:00:00,
2013-04-19 19:06:00,45.4,31.1,31.21,NNW,344,0.0,0.0,57,0.00,,---,0.00,VWS V14.01,2013-04-20 02:06:00,
2013-04-19 19:11:00,44.9,31.5,31.21,NW,311,0.0,0.0,59,0.00,,---,0.00,VWS V14.01,2013-04-20 02:11:00,
2013-04-19 19:16:00,44.5,32.3,31.21,NW,325,0.0,0.0,62,0.00,,---,0.00,VWS V14.01,2013-04-20 02:16:00,
2013-04-19 19:21:00,43.9,32.5,31.21,NNW,343,0.0,0.0,64,0.00,,---,0.00,VWS V14.01,2013-04-20 02:21:00,
2013-04-19 19:26:00,43.3,32.3,31.21,NNW,336,0.0,0.0,65,0.00,,---,0.00,VWS V14.01,2013-04-20 02:26:00,
2013-04-19 19:31:00,43.2,32.6,31.20,NW,325,0.0,0.0,66,0.00,,---,0.00,VWS V14.01,2013-04-20 02:31:00,
2013-04-19 19:36:00,42.9,32.7,31.20,NW,319,0.0,0.0,67,0.00,,---,0.00,VWS V14.01,2013-04-20 02:36:00,
2013-04-19 19:41:00,42.6,32.8,31.20,NW,326,0.0,0.0,68,0.00,,---,0.00,VWS V14.01,2013-04-20 02:41:00,
2013-04-19 19:46:00,42.5,32.7,31.20,NW,317,0.0,0.0,68,0.00,,---,0.00,VWS V14.01,2013-04-20 02:46:00,
2013-04-19 19:51:00,42.3,32.9,31.20,NW,314,0.0,0.0,69,0.00,,---,0.00,VWS V14.01,2013-04-20 02:51:00,
2013-04-19 19:56:00,42.1,32.7,31.20,NW,306,0.0,0.0,69,0.00,,---,0.00,VWS V14.01,2013-04-20 02:56:00,
2013-04-19 20:01:00,41.9,32.8,31.20,NW,307,0.0,0.0,70,0.00,,---,0.00,VWS V14.01,2013-04-20 03:01:00,
2013-04-19 20:06:00,41.8,32.8,31.20,NW,307,0.0,0.0,70,0.00,,---,0.00,VWS V14.01,2013-04-20 03:06:00,
2013-04-19 20:11:00,41.6,32.6,31.20,NW,321,0.0,0.0,70,0.00,,---,0.00,VWS V14.01,2013-04-20 03:11:00,
2013-04-19 20:16:00,41.8,32.8,31.20,NNW,342,0.0,0.0,70,0.00,,---,0.00,VWS V14.01,2013-04-20 03:16:00,
2013-04-19 20:22:00,41.6,32.6,31.20,North,360,0.0,0.0,70,0.00,,---,0.00,VWS V14.01,2013-04-20 03:22:00,
2013-04-19 20:27:00,41.3,32.6,31.19,NNW,340,0.0,0.0,71,0.00,,---,0.00,VWS V14.01,2013-04-20 03:27:00,
2013-04-19 20:32:00,41.2,32.9,31.19,North,355,0.0,0.0,72,0.00,,---,0.00,VWS V14.01,2013-04-20 03:32:00,
2013-04-19 20:37:00,40.9,32.9,31.19,North,355,0.0,0.0,73,0.00,,---,0.00,VWS V14.01,2013-04-20 03:37:00,
2013-04-19 20:42:00,40.6,33.0,31.19,NNW,330,0.0,0.0,74,0.00,,---,0.00,VWS V14.01,2013-04-20 03:42:00,
2013-04-19 20:47:00,40.3,33.3,31.19,NNW,343,0.0,0.0,76,0.00,,---,0.00,VWS V14.01,2013-04-20 03:47:00,
2013-04-19 20:52:00,40.1,33.5,31.19,NNW,337,0.0,0.0,77,0.00,,---,0.00,VWS V14.01,2013-04-20 03:52:00,
2013-04-19 20:57:00,39.8,33.2,31.19,NNW,327,0.0,0.0,77,0.00,,---,0.00,VWS V14.01,2013-04-20 03:57:00,
2013-04-19 21:01:00,39.8,33.2,31.19,NW,324,0.0,0.0,77,0.00,,---,0.00,VWS V14.01,2013-04-20 04:01:00,
2013-04-19 21:02:00,39.6,33.0,31.19,NNW,340,0.0,0.0,77,0.00,,---,0.00,VWS V14.01,2013-04-20 04:02:00,
2013-04-19 21:04:00,39.6,33.0,31.19,NNW,330,0.0,0.0,77,0.00,,---,0.00,VWS V14.01,2013-04-20 04:04:00,
2013-04-19 21:09:00,39.5,32.9,31.20,NW,317,0.0,0.0,77,0.00,,---,0.00,VWS V14.01,2013-04-20 04:09:00,
2013-04-19 21:14:00,39.5,32.9,31.20,NW,310,0.0,0.0,77,0.00,,---,0.00,VWS V14.01,2013-04-20 04:14:00,
2013-04-19 21:19:00,39.3,32.7,31.19,WNW,302,0.0,0.0,77,0.00,,---,0.00,VWS V14.01,2013-04-20 04:19:00,
2013-04-19 21:24:00,39.3,32.7,31.19,NW,313,0.0,0.0,77,0.00,,---,0.00,VWS V14.01,2013-04-20 04:24:00,
2013-04-19 21:29:00,39.5,32.2,31.19,WNW,293,0.0,0.0,75,0.00,,---,0.00,VWS V14.01,2013-04-20 04:29:00,
2013-04-19 21:35:00,39.5,32.2,31.20,West,275,0.0,0.0,75,0.00,,---,0.00,VWS V14.01,2013-04-20 04:35:00,
2013-04-19 21:40:00,39.5,31.9,31.20,WNW,303,0.0,0.0,74,0.00,,---,0.00,VWS V14.01,2013-04-20 04:40:00,
2013-04-19 21:45:00,39.5,31.9,31.20,WNW,284,0.0,0.0,74,0.00,,---,0.00,VWS V14.01,2013-04-20 04:45:00,
2013-04-19 21:50:00,39.5,31.9,31.20,WNW,285,0.0,0.0,74,0.00,,---,0.00,VWS V14.01,2013-04-20 04:50:00,
2013-04-19 21:55:00,39.3,31.7,31.19,West,263,0.0,0.0,74,0.00,,---,0.00,VWS V14.01,2013-04-20 04:55:00,
2013-04-19 22:00:00,39.2,31.6,31.19,West,274,0.0,0.0,74,0.00,,---,0.00,VWS V14.01,2013-04-20 05:00:00,
2013-04-19 22:05:00,39.1,31.5,31.21,WNW,298,0.0,0.0,74,0.00,,---,0.00,VWS V14.01,2013-04-20 05:05:00,
2013-04-19 22:10:00,39.1,31.5,31.21,WNW,284,0.0,0.0,74,0.00,,---,0.00,VWS V14.01,2013-04-20 05:10:00,
2013-04-19 22:15:00,38.9,31.3,31.21,WNW,287,0.0,0.0,74,0.00,,---,0.00,VWS V14.01,2013-04-20 05:15:00,
2013-04-19 22:20:00,38.8,31.6,31.21,WNW,287,0.0,0.0,75,0.00,,---,0.00,VWS V14.01,2013-04-20 05:20:00,
2013-04-19 22:25:00,38.6,31.4,31.21,WNW,287,0.0,0.0,75,0.00,,---,0.00,VWS V14.01,2013-04-20 05:25:00,
2013-04-19 22:30:00,38.6,31.7,31.21,NNW,342,0.0,0.0,76,0.00,,---,0.00,VWS V14.01,2013-04-20 05:30:00,
2013-04-19 22:35:00,38.9,31.7,31.21,NNW,335,0.0,0.0,75,0.00,,---,0.00,VWS V14.01,2013-04-20 05:35:00,
2013-04-19 22:40:00,39.3,31.7,31.21,NNW,330,0.0,0.0,74,0.00,,---,0.00,VWS V14.01,2013-04-20 05:40:00,
2013-04-19 22:45:00,39.5,31.9,31.22,WNW,295,0.0,0.0,74,0.00,,---,0.00,VWS V14.01,2013-04-20 05:45:00,
2013-04-19 22:50:00,39.3,31.7,31.21,WNW,287,0.0,0.0,74,0.00,,---,0.00,VWS V14.01,2013-04-20 05:50:00,
2013-04-19 22:56:00,39.2,31.6,31.21,West,276,0.0,0.0,74,0.00,,---,0.00,VWS V14.01,2013-04-20 05:56:00,
2013-04-19 23:01:00,38.9,31.3,31.21,West,271,0.0,0.0,74,0.00,,---,0.00,VWS V14.01,2013-04-20 06:01:00,
2013-04-19 23:06:00,38.8,31.6,31.22,West,271,0.0,0.0,75,0.00,,---,0.00,VWS V14.01,2013-04-20 06:06:00,
2013-04-19 23:11:00,38.8,31.2,31.22,West,274,0.0,0.0,74,0.00,,---,0.00,VWS V14.01,2013-04-20 06:11:00,
2013-04-19 23:16:00,38.8,31.2,31.22,West,273,0.0,0.0,74,0.00,,---,0.00,VWS V14.01,2013-04-20 06:16:00,
2013-04-19 23:21:00,38.5,31.3,31.22,South,171,0.0,0.0,75,0.00,,---,0.00,VWS V14.01,2013-04-20 06:21:00,
2013-04-19 23:26:00,38.5,31.6,31.22,South,169,0.0,0.0,76,0.00,,---,0.00,VWS V14.01,2013-04-20 06:26:00,
2013-04-19 23:31:00,38.5,31.3,31.22,SSW,196,0.0,0.0,75,0.00,,---,0.00,VWS V14.01,2013-04-20 06:31:00,
2013-04-19 23:36:00,38.5,31.3,31.22,South,188,0.0,0.0,75,0.00,,---,0.00,VWS V14.01,2013-04-20 06:36:00,
2013-04-19 23:41:00,38.5,31.3,31.22,SSE,161,0.0,0.0,75,0.00,,---,0.00,VWS V14.01,2013-04-20 06:41:00,
2013-04-19 23:46:00,38.5,31.3,31.22,SSE,161,0.0,0.0,75,0.00,,---,0.00,VWS V14.01,2013-04-20 06:46:00,
2013-04-19 23:51:00,38.5,31.3,31.22,SSE,161,0.0,0.0,75,0.00,,---,0.00,VWS V14.01,2013-04-20 06:51:00,
2013-04-19 23:56:00,38.5,31.3,31.22,South,169,0.0,0.0,75,0.00,,---,0.00,VWS V14.01,2013-04-20 06:56:00,